Home   Weather   Ørsta   Past weeks
Flag for Norway

Past Weather in Ørsta, Norway — Yesterday and Last 2 Weeks

Now
48 °F

Sunny.


Feels Like: 48 °F
Forecast: 43 / 35 °F
Wind: 2 mph from North

Location: Alesund / Vigra

Current Time: Oct 20, 2019 at 11:57:22 am

Latest Report: Oct 20, 2019 at 11:20 am


Visibility: 10 mi

Pressure: 29.83 "Hg

Humidity: 71%

Dew Point: 39 °F

Location of ØrstaLocation

Past Weather in Ørsta — Graph

°F

Ørsta Temperature Yesterday

Maximum temperature yesterday: 48 °F (at 11:50 am)
Minimum temperature yesterday: 41 °F (at 12:50 am)
Average temperature yesterday: 45 °F

High & Low Weather Summary for the Past Weeks

 TemperatureHumidityPressure
High55 °F (Oct 18, 2:20 pm)100% (Oct 6, 12:20 am)30.27 "Hg (Oct 6, 12:20 am)
Low30 °F (Oct 14, 6:20 am)53% (Oct 7, 12:20 pm)29.15 "Hg (Oct 11, 5:50 pm)
Average46 °F77%29.65 "Hg
* Reported Oct 5 10:20 am — Oct 20 10:20 am, Ørsta. Weather by CustomWeather, © 2019

Note: Actual official high and low records may vary slightly from our data, if they occured in-between our weather recording intervals... More about our weather records

Advertising

Ørsta Weather History for the Previous 24 Hours

Scroll right to see more
 ConditionsComfort  
Time TempWeatherWind HumidityBarometerVisibility
10:20 am
Sun, Oct 20
43 °FSunny.1 mph93%29.80 "Hg10 mi
9:50 am39 °FSunny.2 mph87%29.80 "Hg10 mi
9:20 am37 °FSunny.1 mph93%29.80 "Hg10 mi
8:50 am34 °FSunny.3 mph93%29.77 "Hg10 mi
8:20 am37 °FPassing clouds.3 mph93%29.77 "HgN/A
7:50 am39 °FClear.2 mph87%29.77 "Hg10 mi
7:20 am39 °FPassing clouds.7 mph93%29.77 "HgN/A
6:50 am39 °FClear.3 mph87%29.74 "Hg10 mi
6:20 am43 °FClear.14 mph81%29.74 "Hg10 mi
5:50 am43 °FPassing clouds.10 mph81%29.74 "HgN/A
5:20 am43 °FQuite cool.13 mph81%29.74 "HgN/A
4:50 am43 °FQuite cool.15 mph87%29.74 "HgN/A
4:20 am45 °FQuite cool.15 mph76%29.74 "HgN/A
3:50 am45 °FQuite cool.20 mph81%29.74 "HgN/A
3:20 am45 °FQuite cool.22 mph81%29.74 "HgN/A
2:50 am45 °FQuite cool.22 mph81%29.74 "HgN/A
2:20 am45 °FQuite cool.22 mph81%29.74 "HgN/A
1:50 am45 °FQuite cool.22 mph81%29.74 "HgN/A
1:20 am45 °FQuite cool.23 mph81%29.74 "HgN/A
12:50 am45 °FQuite cool.20 mph76%29.74 "HgN/A
12:20 am45 °FQuite cool.21 mph76%29.74 "HgN/A
11:50 pm
Sat, Oct 19
45 °FQuite cool.21 mph76%29.74 "HgN/A
11:20 pm45 °FQuite cool.17 mph76%29.74 "HgN/A
10:20 pm45 °FClear.17 mph71%29.74 "Hg10 mi
9:50 pm45 °FClear.18 mph76%29.74 "Hg10 mi
9:20 pm45 °FClear.20 mph76%29.71 "Hg10 mi
8:50 pm45 °FPassing clouds.20 mph76%29.71 "HgN/A
8:20 pm45 °FPassing clouds.18 mph76%29.71 "HgN/A
7:50 pm45 °FPassing clouds.20 mph76%29.71 "HgN/A
7:20 pm45 °FPassing clouds.23 mph76%29.71 "HgN/A
6:50 pm46 °FPassing clouds.25 mph66%29.71 "HgN/A
6:20 pm46 °FPassing clouds.25 mph71%29.71 "HgN/A
5:50 pm46 °FScattered clouds.24 mph71%29.68 "HgN/A
5:20 pm46 °FScattered clouds.24 mph71%29.68 "HgN/A
4:50 pm46 °FPartly sunny.25 mph71%29.68 "HgN/A
4:20 pm48 °FPartly sunny.26 mph66%29.68 "HgN/A
3:50 pm48 °FPartly sunny.30 mph66%29.68 "HgN/A
3:20 pm46 °FPartly sunny.30 mph71%29.68 "HgN/A
2:50 pm46 °FPartly sunny.31 mph71%29.65 "HgN/A
2:20 pm46 °FPartly sunny.32 mph71%29.65 "HgN/A
1:50 pm46 °FPartly sunny.30 mph71%29.65 "HgN/A
1:20 pm46 °FPartly sunny.31 mph71%29.65 "HgN/A
12:50 pm48 °FPartly sunny.25 mph71%29.65 "HgN/A
12:20 pm48 °FPartly sunny.24 mph76%29.62 "HgN/A
11:50 am48 °FBroken clouds.26 mph76%29.62 "HgN/A
11:20 am46 °FScattered clouds.24 mph82%29.62 "HgN/A
Weather by CustomWeather, © 2019

See weather overview